User: anonymous   Login
Location: Cactus School
(34.5700°N, 118.0931°W)
Time: 17:46:19
(UTC-08:00)
Language:

Vanguard 2 Rocket - Orbit

View from above orbital plane
View from above orbital plane
View from above satellite
View from above satellite

Ground track
Ground track

The orbit data is extracted from the following two-line orbital elements,

1    12U 59001B   19318.55848836 +.00000080 +00000-0 +50251-4 0  9992
2    12 032.9019 026.3071 1666143 020.8849 345.2385 11.44314606255244
Epoch (UTC): 14 November 2019 13:24:13
Eccentricity: 0.1666143
inclination: 32.9019°
perigee height: 554 km
apogee height: 3326 km
right ascension of ascending node: 26.3071°
argument of perigee: 20.8849°
revolutions per day: 11.44314606
mean anomaly at epoch: 345.2385°
orbit number at epoch: 25524

The dashed part of the orbit path shows where the satellite is in the earth's shadow,  

DLR